Estación municipal de Monistrol de Calders (Moianès, P.N.de Sant Llorenç del Munt i l'Obac)

Consulta los datos en tiempo real de la estación municipal de Monistrol de Calders





Hora UTC 19:05
Temperatura 15.3 ºC
Humedad 88.0 %
Presión 1009.2 hPa
Pluja 2.8 mm
Velocidad viento 0.0 km/h
Dirección viento S

Webcam

Datos diarios 2026-05-04



Hora UTC (invierno +1h; verano +2h)
Temperatura (ºC) Humedad (%) Presión (hPa) Velocidad viento (km/h) Precipitación (mm)
Hora UTC Aire Humedad Presión Vel. Dir. Vel. Max Dir. Intent. máx 5 min.
00:05 13.4 90.0 1012.7 4.8 S 4.8 0.0
00:10 13.4 90.0 1012.7 3.2 S 11.3 0.0
00:15 13.4 90.0 1012.7 6.4 SE 9.7 0.0
00:20 13.5 90.0 1012.8 3.2 SSE 6.4 0.0
00:25 13.6 90.0 1012.7 4.8 SE 6.4 0.0
00:30 13.5 90.0 1012.7 1.6 S 8.0 0.0
00:35 13.5 90.0 1012.7 4.8 SE 6.4 0.0
00:40 13.5 90.0 1012.6 0.0 SSE 6.4 0.0
00:45 13.6 90.0 1012.4 1.6 ESE 3.2 0.0
00:50 13.5 90.0 1012.5 0.0 ESE 3.2 0.0
00:55 13.4 90.0 1012.4 1.6 SSE 3.2 0.0
01:00 13.4 90.0 1012.4 0.0 SSE 3.2 0.0
01:05 13.4 90.0 1012.5 0.0 SSE 0.0 0.0
01:10 13.3 90.0 1012.4 0.0 SSE 0.0 0.0
01:15 13.2 90.0 1012.3 0.0 SSE 0.0 0.0
01:20 13.2 90.0 1012.3 0.0 SSE 0.0 0.0
01:25 13.1 90.0 1012.4 0.0 S 1.6 0.0
01:30 12.9 91.0 1012.3 0.0 NW 4.8 0.0
01:35 12.9 91.0 1012.3 0.0 NW 4.8 0.0
01:40 12.9 91.0 1012.1 1.6 NW 1.6 0.0
01:45 12.9 91.0 1012.2 0.0 NW 1.6 0.0
01:50 12.8 91.0 1012.2 0.0 NW 1.6 0.0
01:55 12.8 92.0 1012.1 0.0 NW 1.6 0.0
02:00 12.8 92.0 1012.1 0.0 NW 0.0 0.0
02:05 12.9 92.0 1012.1 3.2 SW 3.2 0.0
02:10 12.9 92.0 1012.0 1.6 SSW 3.2 0.0
02:15 12.9 92.0 1011.9 3.2 SE 3.2 0.0
02:20 12.9 92.0 1011.9 1.6 SE 3.2 0.0
02:25 12.9 92.0 1011.9 1.6 S 3.2 0.0
02:30 12.9 92.0 1011.9 1.6 SE 3.2 0.0
02:35 12.9 92.0 1011.8 1.6 SE 3.2 0.0
02:40 12.9 92.0 1011.8 3.2 ESE 4.8 0.0
02:45 13.0 92.0 1011.7 0.0 SSE 4.8 0.0
02:50 13.0 92.0 1011.9 0.0 SSE 3.2 0.0
02:55 13.0 92.0 1011.9 0.0 SSE 0.0 0.0
03:00 13.1 92.0 1011.8 0.0 SSE 0.0 0.0
03:05 13.0 92.0 1011.7 1.6 SSE 3.2 0.0
03:10 13.1 92.0 1011.7 1.6 SSE 3.2 0.0
03:15 13.0 92.0 1011.7 0.0 SSE 3.2 0.0
03:20 13.0 92.0 1011.6 0.0 SSE 3.2 0.0
03:25 13.0 92.0 1011.6 1.6 SSE 3.2 0.0
03:30 12.9 92.0 1011.7 3.2 SSE 3.2 0.0
03:35 12.9 92.0 1011.7 0.0 S 3.2 0.0
03:40 12.9 92.0 1011.7 1.6 ESE 3.2 0.0
03:45 12.9 92.0 1011.6 0.0 ESE 3.2 0.0
03:50 12.9 92.0 1011.7 1.6 SSE 3.2 0.0
03:55 12.9 92.0 1011.6 1.6 SE 3.2 0.0
04:00 12.9 92.0 1011.5 0.0 SE 3.2 0.0
04:05 12.8 92.0 1011.5 0.0 SE 3.2 0.0
04:10 12.8 92.0 1011.6 0.0 S 1.6 0.0
04:15 12.8 92.0 1011.7 0.0 SSW 1.6 0.0
04:20 12.8 92.0 1011.7 1.6 W 3.2 0.0
04:25 12.8 92.0 1011.7 1.6 WNW 3.2 0.0
04:30 12.8 92.0 1011.7 0.0 NW 3.2 0.0
04:35 12.8 92.0 1011.7 1.6 NE 3.2 0.0
04:40 12.8 92.0 1011.7 1.6 NE 3.2 0.0
04:45 12.9 92.0 1011.7 0.0 NE 1.6 0.0
04:50 12.9 92.0 1011.7 0.0 NE 1.6 0.0
04:55 12.8 92.0 1011.7 1.6 NE 1.6 0.0
05:00 12.8 92.0 1011.7 0.0 NE 1.6 0.0
05:05 12.8 92.0 1011.7 1.6 NNW 3.2 0.0
05:10 12.8 92.0 1011.7 0.0 NNW 3.2 0.0
05:15 12.8 92.0 1011.7 0.0 NNW 3.2 0.0
05:20 12.8 92.0 1011.8 0.0 WSW 3.2 0.0
05:25 12.8 92.0 1011.8 0.0 WSW 3.2 0.0
05:30 12.8 92.0 1011.7 0.0 WSW 1.6 0.0
05:35 12.9 92.0 1011.7 0.0 WSW 1.6 0.0
05:40 12.9 92.0 1011.6 0.0 WSW 1.6 0.0
05:45 12.9 92.0 1011.5 0.0 WSW 1.6 0.0
05:50 13.0 92.0 1011.5 0.0 WSW 1.6 0.0
05:55 13.1 92.0 1011.6 0.0 W 3.2 0.0
06:00 13.2 92.0 1011.6 0.0 W 3.2 0.0
06:05 13.2 92.0 1011.7 0.0 W 1.6 0.0
06:10 13.2 92.0 1011.6 0.0 W 1.6 0.0
06:15 13.3 92.0 1011.5 0.0 W 1.6 0.0
06:20 13.3 92.0 1011.5 0.0 W 1.6 0.0
06:25 13.4 92.0 1011.4 3.2 W 3.2 0.0
06:30 13.4 91.0 1011.4 1.6 SSW 3.2 0.0
06:35 13.4 91.0 1011.3 0.0 SSW 3.2 0.0
06:40 13.6 91.0 1011.2 0.0 ESE 3.2 0.0
06:45 13.7 90.0 1011.2 0.0 SSE 3.2 0.0
06:50 13.8 90.0 1011.2 3.2 SSW 4.8 0.0
06:55 13.9 90.0 1011.2 3.2 WNW 4.8 0.0
07:00 14.2 90.0 1011.4 0.0 WNW 4.8 0.0
07:05 14.3 89.0 1011.3 1.6 SSW 4.8 0.0
07:10 14.5 88.0 1011.3 0.0 WSW 4.8 0.0
07:15 14.7 87.0 1011.3 0.0 WSW 3.2 0.0
07:20 14.9 86.0 1011.3 0.0 WSW 3.2 0.0
07:25 15.1 85.0 1011.4 1.6 WSW 4.8 0.0
07:30 15.4 83.0 1011.3 1.6 WSW 4.8 0.0
07:35 15.6 82.0 1011.1 0.0 WSW 3.2 0.0
07:40 15.8 81.0 1011.2 0.0 WSW 1.6 0.0
07:45 15.9 81.0 1011.0 0.0 WSW 1.6 0.0
07:50 16.2 81.0 1011.0 3.2 NW 4.8 0.0
07:55 16.3 81.0 1010.9 1.6 NNW 4.8 0.0
08:00 16.4 82.0 1011.1 1.6 NW 3.2 0.0
08:05 16.4 82.0 1011.0 3.2 WNW 4.8 0.0
08:10 16.6 81.0 1011.1 1.6 W 4.8 0.0
08:15 16.7 82.0 1011.1 3.2 W 4.8 0.0
08:20 16.9 79.0 1011.1 3.2 W 8.0 0.0
08:25 17.1 78.0 1011.0 0.0 WSW 8.0 0.0
08:30 17.2 78.0 1011.0 3.2 E 4.8 0.0
08:35 17.7 76.0 1010.9 1.6 ENE 3.2 0.0
08:40 18.1 75.0 1010.9 1.6 NW 4.8 0.0
08:45 18.1 74.0 1010.9 1.6 NNW 4.8 0.0
08:50 18.2 71.0 1010.8 4.8 ENE 4.8 0.0
08:55 17.8 70.0 1010.9 4.8 NE 8.0 0.0
09:00 17.6 73.0 1010.8 4.8 E 8.0 0.0
09:05 17.8 73.0 1010.8 3.2 WNW 6.4 0.0
09:10 18.2 72.0 1010.8 0.0 E 4.8 0.0
09:15 18.5 69.0 1010.8 1.6 N 6.4 0.0
09:20 18.5 67.0 1010.6 0.0 SSW 6.4 0.0
09:25 18.6 68.0 1010.6 4.8 NNW 6.4 0.0
09:30 18.6 67.0 1010.5 1.6 NNE 6.4 0.0
09:35 18.6 68.0 1010.5 1.6 W 6.4 0.0
09:40 18.7 68.0 1010.4 3.2 NW 3.2 0.0
09:45 18.8 67.0 1010.3 3.2 NW 4.8 0.0
09:50 18.9 66.0 1010.3 0.0 NW 4.8 0.0
09:55 19.1 67.0 1010.3 3.2 W 4.8 0.0
10:00 19.3 65.0 1010.3 1.6 WSW 4.8 0.0
10:05 19.4 65.0 1010.3 3.2 NNW 4.8 0.0
10:10 19.4 63.0 1010.2 8.0 E 11.3 0.0
10:15 19.1 65.0 1010.1 9.7 E 12.9 0.0
10:20 19.1 65.0 1010.1 6.4 E 12.9 0.0
10:25 19.5 63.0 1010.1 6.4 NE 11.3 0.0
10:30 19.7 63.0 1010.1 6.4 E 9.7 0.0
10:35 19.7 62.0 1010.1 1.6 E 12.9 0.0
10:40 20.1 61.0 1010.0 1.6 SSE 11.3 0.0
10:45 20.5 62.0 1010.0 3.2 WSW 11.3 0.0
10:50 21.1 61.0 1010.0 0.0 WNW 11.3 0.0
10:55 21.6 57.0 1009.9 3.2 E 9.7 0.0
11:00 21.3 56.0 1009.9 1.6 E 12.9 0.0
11:05 21.3 58.0 1009.8 1.6 SW 12.9 0.0
11:10 21.6 58.0 1009.6 0.0 SSE 6.4 0.0
11:15 21.6 57.0 1009.5 1.6 S 12.9 0.0
11:20 21.4 56.0 1009.5 1.6 E 12.9 0.0
11:25 21.6 58.0 1009.3 1.6 SE 6.4 0.0
11:30 21.7 59.0 1009.2 3.2 WNW 8.0 0.0
11:35 21.9 58.0 1009.2 1.6 W 8.0 0.0
11:40 22.1 57.0 1009.2 1.6 NE 6.4 0.0
11:45 21.7 56.0 1009.2 12.9 E 16.1 0.0
11:50 20.9 58.0 1009.2 12.9 S 16.1 0.0
11:55 20.7 60.0 1009.2 6.4 SSE 16.1 0.0
12:00 20.6 61.0 1009.3 9.7 SE 19.3 0.0
12:05 20.2 61.0 1009.3 11.3 SW 19.3 0.0
12:10 19.9 64.0 1009.3 12.9 ESE 17.7 0.0
12:15 19.4 66.0 1009.2 14.5 ESE 20.9 0.0
12:20 19.3 66.0 1009.1 4.8 SSE 20.9 0.0
12:25 19.2 67.0 1009.0 9.7 E 17.7 0.0
12:30 19.2 67.0 1009.0 9.7 S 17.7 0.0
12:35 19.2 68.0 1008.9 4.8 S 11.3 0.0
12:40 19.1 69.0 1009.0 8.0 SSE 16.1 0.0
12:45 18.9 70.0 1009.1 17.7 S 22.5 0.0
12:50 18.7 70.0 1009.1 14.5 SSE 20.9 0.0
12:55 18.6 73.0 1009.1 17.7 S 17.7 0.0
13:00 18.3 75.0 1009.1 6.4 S 24.1 0.0
13:05 18.1 77.0 1009.0 6.4 S 24.1 0.0
13:10 17.9 79.0 1009.0 8.0 SE 14.5 0.0
13:15 17.8 78.0 1009.1 12.9 S 17.7 0.0
13:20 17.7 79.0 1009.1 11.3 SE 20.9 0.0
13:25 17.6 79.0 1009.7 20.9 W 22.5 0.0
13:30 17.2 78.0 1009.8 8.0 WNW 22.5 0.0
13:35 16.6 81.0 1009.8 11.3 WNW 14.5 1.6
13:40 16.1 83.0 1010.0 1.6 SW 11.3 0.2
13:45 15.7 83.0 1009.8 1.6 SSE 4.8 0.2
13:50 15.4 84.0 1009.8 0.0 SSW 4.8 0.2
13:55 15.2 84.0 1009.8 0.0 SSW 4.8 0.0
14:00 15.2 86.0 1009.9 0.0 SSW 4.8 0.2
14:05 15.2 88.0 1010.0 1.6 S 4.8 0.0
14:10 15.2 88.0 1010.1 0.0 WSW 1.6 0.0
14:15 15.2 89.0 1010.1 1.6 NW 3.2 0.0
14:20 14.9 89.0 1010.0 0.0 N 4.8 0.2
14:25 14.9 90.0 1010.0 0.0 NNW 4.8 0.0
14:30 15.0 91.0 1010.0 1.6 NW 4.8 0.2
14:35 15.0 92.0 1009.9 1.6 NW 4.8 0.0
14:40 15.2 92.0 1009.8 1.6 NW 3.2 0.0
14:45 15.2 91.0 1009.6 1.6 NW 4.8 0.0
14:50 15.2 91.0 1009.6 0.0 NW 4.8 0.0
14:55 15.2 92.0 1009.6 0.0 NW 3.2 0.0
15:00 15.2 92.0 1009.5 0.0 NW 3.2 0.0
15:05 15.3 92.0 1009.4 0.0 NW 1.6 0.0
15:10 15.3 92.0 1009.4 0.0 NW 1.6 0.0
15:15 15.3 92.0 1009.5 0.0 NW 1.6 0.0
15:20 15.4 92.0 1009.4 0.0 NW 1.6 0.0
15:25 15.6 93.0 1009.4 0.0 NW 0.0 0.0
15:30 15.6 92.0 1009.3 0.0 WNW 0.0 0.0
15:35 15.6 92.0 1009.2 0.0 SW 0.0 0.0
15:40 15.7 92.0 1009.2 0.0 SW 0.0 0.0
15:45 15.8 91.0 1009.1 0.0 SW 1.6 0.0
15:50 15.9 91.0 1009.1 8.0 S 12.9 0.0
15:55 16.0 89.0 1009.1 9.7 S 12.9 0.0
16:00 16.1 87.0 1009.0 4.8 SSW 17.7 0.0
16:05 16.1 87.0 1009.0 9.7 S 17.7 0.0
16:10 16.1 86.0 1008.9 6.4 SSE 14.5 0.0
16:15 16.1 86.0 1009.0 8.0 SSE 14.5 0.0
16:20 16.2 86.0 1008.9 4.8 S 14.5 0.0
16:25 16.2 86.0 1008.8 6.4 S 11.3 0.0
16:30 16.1 86.0 1009.0 3.2 S 11.3 0.0
16:35 16.2 85.0 1008.9 6.4 S 9.7 0.0
16:40 16.2 84.0 1008.9 3.2 SSE 8.0 0.0
16:45 16.2 84.0 1008.8 6.4 S 11.3 0.0
16:50 16.2 84.0 1008.8 6.4 SSW 9.7 0.0
16:55 16.2 84.0 1008.7 9.7 S 11.3 0.0
17:00 16.1 85.0 1008.8 6.4 SSE 11.3 0.0
17:05 16.0 85.0 1008.9 8.0 SSE 11.3 0.0
17:10 15.9 85.0 1008.9 3.2 SW 11.3 0.0
17:15 15.9 85.0 1008.9 6.4 SSW 11.3 0.0
17:20 15.8 86.0 1008.8 1.6 S 8.0 0.0
17:25 15.8 86.0 1008.8 4.8 SSE 6.4 0.0
17:30 15.8 86.0 1008.7 1.6 SSE 6.4 0.0
17:35 15.8 86.0 1008.7 3.2 S 8.0 0.0
17:40 15.8 86.0 1008.6 4.8 SSW 6.4 0.0
17:45 15.8 86.0 1008.5 6.4 SSE 6.4 0.0
17:50 15.8 86.0 1008.6 8.0 SSE 9.7 0.0
17:55 15.8 86.0 1008.4 6.4 SSW 11.3 0.0
18:00 15.8 86.0 1008.4 1.6 ESE 11.3 0.0
18:05 15.8 86.0 1008.5 3.2 S 8.0 0.0
18:10 15.7 86.0 1008.4 6.4 SSE 9.7 0.0
18:15 15.6 86.0 1008.6 0.0 SW 9.7 0.0
18:20 15.6 87.0 1008.8 0.0 SW 4.8 0.0
18:25 15.5 87.0 1008.9 6.4 SSW 6.4 0.0
18:30 15.4 87.0 1009.0 3.2 SSE 8.0 0.0
18:35 15.4 87.0 1009.0 4.8 SSE 8.0 0.0
18:40 15.3 87.0 1009.0 1.6 S 8.0 0.0
18:45 15.3 88.0 1009.2 0.0 S 6.4 0.0
18:50 15.3 87.0 1009.3 0.0 S 3.2 0.0
18:55 15.3 88.0 1009.3 0.0 S 1.6 0.0
19:00 15.3 88.0 1009.3 0.0 S 1.6 0.0
19:05 15.3 88.0 1009.2 0.0 S 1.6 0.0
Máxima 22.1 93.0 1012.8 20.9 W 24.1 1.6
Mínima 12.8 56.0 1008.4
Total 2.8